Location: Wyoming Infrared Observatory
(41.0971°N, 105.9765°W)
Time: 13:21:43
(UTC-06:00)

Daily predictions for brighter satellites

Satellite Brightness Start Highest point End
(mag) Time Altitude Azimuth Time Altitude Azimuth Time Altitude Azimuth
Lacrosse 5 2.4 21:03:51 10° S 21:08:24 35° SE 21:12:59 10° ENE
Cosmos 1607 4.1 21:02:25 10° NNW 21:08:52 87° ENE 21:15:08 10° SSE
Cosmos 972 4.4 21:05:44 10° S 21:10:38 59° ESE 21:15:26 10° NNE
Cosmos 1238 Rocket 4.1 21:09:08 10° ESE 21:10:45 14° E 21:12:22 10° NE
ERS-1 Rocket 4.4 21:07:52 10° ESE 21:11:46 23° ENE 21:15:40 10° NNE
Resurs 1-3 3.9 21:07:42 10° S 21:12:04 72° WSW 21:16:28 10° NNW
Iridium 4 Rocket 4.2 21:07:58 10° SSE 21:13:17 42° E 21:18:17 10° NNE
Cosmos 1758 4.5 21:10:21 10° NNW 21:14:17 45° W 21:18:10 10° SSW
Meteor 2-11 Rocket 4.5 21:08:30 10° S 21:14:29 69° E 21:20:32 10° NNE
YAOGAN 6 4.4 21:14:22 10° SSW 21:17:30 29° W 21:20:38 10° NW
Cosmos 2263 Rocket 2.6 21:12:29 10° SSW 21:18:09 71° WNW 21:23:49 10° NNE
Cosmos 1048 Rocket 4.4 21:13:26 10° S 21:18:24 43° ESE 21:23:26 10° NNE
Cosmos 1602 Rocket 4.2 21:16:20 10° SSW 21:20:45 61° W 21:25:12 10° N
Cosmos 1812 Rocket 3.6 21:19:06 10° N 21:23:28 82° W 21:27:50 10° S
SL-8 R/B 4.5 21:23:12 10° SSW 21:27:23 30° SE 21:31:35 10° ENE
OAO 3 Rocket 3.9 21:22:53 10° SW 21:27:24 36° S 21:31:54 10° ESE
NOSS 2-3 (C) 4.3 21:22:56 10° SW 21:27:27 67° NW 21:32:45 10° NNE
Meteor 1-16 Rocket 4.3 21:22:11 10° N 21:27:43 70° E 21:33:23 10° SSE
Cosmos 1707 3.4 21:26:47 10° SSW 21:30:35 58° W 21:34:24 10° N
SAR-Lupe-3 4.5 21:27:24 10° NNE 21:31:00 75° ESE 21:34:33 10° S
CZ-4B DEB 4.4 21:27:44 10° SSE 21:31:10 74° ENE 21:34:37 10° N
Cosmos 1953 Rocket 4.1 21:27:41 10° SSE 21:31:44 40° E 21:35:50 10° NNE
USA 215 3.7 21:25:35 10° SSE 21:31:59 56° SW 21:38:25 10° NW
Cosmos 1315 Rocket 3.1 21:28:43 10° S 21:32:37 48° E 21:36:34 10° NNE
Resurs 01 Rocket 2.7 21:28:36 10° S 21:32:49 45° W 21:37:05 10° NNW
Cosmos 1953 3.8 21:30:23 10° NNW 21:34:03 36° W 21:37:44 10° SSW
In-Cosmos 22 4.4 21:31:30 10° S 21:36:49 54° E 21:42:19 10° NNE
Cosmos 1758 Rocket 3.7 21:32:57 10° S 21:37:19 59° E 21:41:41 10° NNE
Cosmos 1452 Rocket 3.7 21:33:48 10° NNW 21:39:06 77° WSW 21:44:22 10° SSE
Spot 2 Rocket 4.1 21:36:15 10° S 21:41:12 57° W 21:46:12 10° NNW
Cosmos 1420 Rocket 4.0 21:36:15 10° NNW 21:41:27 83° WSW 21:46:38 10° SSE
Cosmos 1674 3.9 21:43:16 15° SE 21:45:39 26° E 21:48:52 10° NNE
SL-08 RB Rocket 3.9 21:41:54 12° SSE 21:46:11 61° ENE 21:50:49 10° N
Cosmos 1437 3.3 21:46:23 10° N 21:49:24 40° ENE 21:51:19 19° SE
MetOp-B 4.2 21:46:41 11° SSE 21:51:45 73° ENE 21:57:07 10° N
Helios 1B rocket 4.0 21:50:19 10° NE 21:53:07 18° E 21:54:22 16° ESE
SPOT 1/Viking Rocket 4.3 21:53:26 16° SE 21:57:06 37° ENE 22:01:48 10° N
H-2A R/B 2.1 21:52:28 12° SSE 21:57:21 82° ENE 22:02:46 10° N
Cosmos 1825 Rocket 4.1 21:58:43 10° SSW 22:03:07 61° W 22:07:33 10° N
Cosmos 2278 Rocket 3.6 22:05:21 17° ESE 22:07:03 20° E 22:11:00 10° NE
Cosmos 1269 Rocket 4.0 22:04:18 10° SSW 22:09:36 87° ESE 22:14:57 10° NNE
Cosmos 1726 3.1 22:06:33 10° NNE 22:09:57 32° ENE 22:11:29 23° ESE
Aureole 1 Rocket 3.8 22:07:16 10° SW 22:10:14 39° WNW 22:13:47 10° N
Cosmos 921 Rocket 3.4 22:06:57 10° N 22:11:21 53° ENE 22:13:56 23° SE
Cosmos 1346 Rocket 2.7 22:08:39 10° N 22:12:40 81° E 22:15:14 22° SSE
Terra 3.1 22:10:29 17° ESE 22:13:01 27° ENE 22:17:01 10° N
DMSP B5D2-2 4.1 22:09:02 10° NNE 22:14:15 64° ESE 22:18:48 13° S
Cosmos 1331 Rocket 4.4 22:09:41 10° N 22:14:44 49° ENE 22:17:50 22° SE
Cosmos 2285 Rocket 4.1 22:09:24 10° SSW 22:15:45 81° WNW 22:22:05 10° NNE
COSMOS 2406 3.8 22:10:24 10° NNW 22:15:57 46° ENE 22:19:32 21° SE
Iridium 81 3.6 22:17:47 50° ESE 22:18:02 54° E 22:20:40 10° N
ARGOS 3.8 22:14:17 10° S 22:19:33 52° W 22:24:52 10° NNW
USA 238 DEB 4.0 22:15:26 10° NNW 22:22:31 63° NE 22:27:33 21° SE
USA 238 4.1 22:15:33 10° NNW 22:22:37 62° NE 22:27:39 21° SE
Cosmos 494 Rocket 4.0 22:17:55 11° S 22:22:57 66° ESE 22:28:10 10° NNE
KORONAS-FOTON 3.9 22:22:27 26° SSE 22:24:28 60° E 22:28:20 10° NNE
ATLAS 3B R/B 3.2 22:19:23 10° NNW 22:25:49 49° NE 22:30:17 20° ESE
Cosmos 1844 3.6 22:22:18 10° SSW 22:27:57 73° ESE 22:33:43 10° NNE
Cosmos 1844 Rocket 2.8 22:25:29 10° SSW 22:31:10 82° WNW 22:36:51 10° NNE
CARTOSAT-1 4.1 22:30:14 28° SE 22:32:03 45° ENE 22:36:10 10° N
Meteor 1-24 Rocket 4.4 22:26:55 10° SSW 22:32:51 60° WNW 22:38:49 10° N
S3M 4.0 22:29:41 19° S 22:34:23 69° E 22:40:44 10° NNE
NOSS 3-2 (A) 4.5 22:28:42 10° NNW 22:36:02 53° NE 22:41:45 20° ESE
CZ-2C R/B 3.9 22:34:52 25° SE 22:37:55 45° ENE 22:43:23 10° N
Cosmos 724 4.3 22:31:59 10° NNW 22:38:02 87° WSW 22:41:30 28° SSE
Cosmos 1461 4.0 22:39:29 28° ESE 22:39:39 29° ESE 22:43:42 10° NE
SPOT 5 3.0 22:38:33 26° S 22:41:28 82° WSW 22:46:44 10° NNW
Cosmos 220 Rocket 4.1 22:40:37 35° SSE 22:42:03 53° ESE 22:46:10 10° NNE
Cosmos 2251 Rocket 3.8 22:40:03 28° SSE 22:42:35 49° ESE 22:47:42 10° NNE
ATLAS 3B CENTAUR R/B 4.2 22:35:19 10° SW 22:47:01 25° S 22:48:46 24° SSE
Cosmos 1908 3.8 22:44:53 10° NNW 22:48:38 52° W 22:50:22 28° SSW
ATLAS 2AS CENTAUR R/B 3.3 22:41:39 10° SW 22:49:27 72° NW 22:57:37 10° NNE
IGS 5A 3.4 22:48:33 40° SSE 22:49:56 73° ENE 22:54:05 10° N
ERS-1 Rocket 3.9 22:46:47 17° SSW 22:50:15 42° W 22:55:03 10° NNW
Lacrosse 5 3.1 22:46:29 10° WSW 22:51:18 43° NW 22:56:07 10° NE
OE (NEXTSAT) 4.4 22:47:49 10° WNW 22:51:18 57° SSW 22:51:36 54° S
Cosmos-2242 4.4 22:48:54 10° NNW 22:52:52 34° W 22:55:47 16° SSW
ATLAS 5 CENTAUR R/B 3.2 22:54:46 21° E 22:54:46 21° E 22:57:19 10° ENE
Cosmos 2082 Rocket 3.9 22:50:01 10° N 22:54:30 23° NE 22:57:41 15° E
Meteor 1-29 2.7 22:54:13 10° NNE 22:57:37 74° ESE 22:57:57 66° SSE
Cosmos 1076 Rocket 4.4 22:58:15 31° E 22:58:32 32° E 23:02:19 10° NNE
Cosmos 1553 Rocket 4.2 22:53:47 15° SSW 22:58:51 67° W 23:04:55 10° N
Cosmos 1842 Rocket 3.5 22:54:38 10° N 22:58:59 85° W 23:00:26 42° S
NOSS 3-2 (C) 4.4 22:52:33 10° NNW 22:59:56 55° NE 23:05:07 23° ESE
Cosmos 1833 Rocket 4.1 22:56:59 10° N 23:01:48 28° NE 23:04:32 19° E
Cosmos 2084 4.2 22:59:42 10° NW 23:03:12 34° WSW 23:03:54 31° SW
SL-8 R/B 4.0 23:04:52 10° WSW 23:09:41 68° NNW 23:14:31 10° ENE
Cosmos 1626 2.7 23:09:55 41° E 23:09:55 41° E 23:13:15 10° NNE
Cosmos 1340 3.2 23:06:07 10° NNW 23:09:47 50° W 23:10:42 40° SW
OAO 3 Rocket 3.7 23:05:55 10° WSW 23:10:21 39° S 23:10:21 39° S
Cosmos 2315 Rocket 4.2 23:09:17 35° SSE 23:11:44 55° E 23:17:54 10° NNE
Helios 1A 4.3 23:13:03 24° SW 23:14:41 33° W 23:18:30 10° NNW
Cosmos 883 Rocket 4.4 23:12:09 34° S 23:15:03 78° E 23:21:17 10° N
CZ-2C R/B 2.7 23:10:23 10° NNE 23:15:47 61° E 23:17:21 43° SSE
Cosmos 1328 4.1 23:16:58 47° E 23:16:58 47° E 23:20:43 10° NNE
Mayak 1.0 23:15:51 10° ENE 23:16:59 12° ENE 23:16:59 12° ENE
Okean 3 Rocket 3.8 23:20:17 48° ESE 23:20:35 49° E 23:24:50 10° NNE
BREEZE-M DEB (TANK) 4.3 23:15:03 10° W 23:20:39 34° NNW 23:23:09 10° NE
Aureole 3 Rocket 4.4 23:17:07 33° SSE 23:20:47 61° E 23:26:46 10° NNE
Cosmos 1455 3.9 23:18:15 10° NNE 23:21:04 21° ENE 23:21:04 21° ENE
Cosmos 1300 2.7 23:17:45 10° NNW 23:21:34 71° W 23:21:58 64° SW
NOSS 2-2 (E) 3.7 23:27:00 48° E 23:27:00 48° E 23:30:35 10° NE
NOSS 3-4 (A) 3.3 23:22:58 26° SSW 23:26:33 75° ESE 23:32:56 10° NE
NOSS 3-4 (C) 3.3 23:23:09 27° SSW 23:26:38 74° ESE 23:33:02 10° NE
Helios 1B rocket 3.8 23:24:45 10° N 23:28:31 36° WNW 23:30:43 20° SW
CENTAUR R/B 3.7 23:28:13 10° NNW 23:35:52 50° NE 23:41:22 22° ESE
COBE Rocket 4.0 23:31:28 10° NNE 23:36:31 65° E 23:37:26 54° SSE
ADEOS Rocket 4.0 23:34:22 10° NE 23:39:36 30° E 23:40:28 29° ESE
Meteor 2-2 Rocket 4.4 23:34:10 10° N 23:39:45 61° ENE 23:41:08 47° SE
Cosmos 2221 2.9 23:38:08 10° NNW 23:42:21 53° W 23:42:59 48° SW
APEX 4.1 23:40:36 10° NW 23:43:01 35° W 23:43:01 35° W
Cosmos 2058 4.2 23:45:07 29° ENE 23:45:07 29° ENE 23:48:10 10° NNE
SL-27 R/B 3.6 23:44:24 10° N 23:47:26 36° NE 23:47:26 36° NE
USA 234 4.4 23:44:34 10° ENE 23:48:42 24° ESE 23:48:42 24° ESE
Cosmos 2278 Rocket 2.7 23:47:07 23° SW 23:50:36 58° WNW 23:56:14 10° NNE
Terra 3.1 23:49:22 27° SW 23:50:39 31° W 23:54:53 10° NNW
Cosmos 1441 Rocket 4.5 23:52:29 10° N 23:55:29 31° ENE 23:55:29 31° ENE
